Date String (YYYY-MM-DD hh:mm:ss) UTC,Instrument flags,Ambient pressure (hPa),Sample flow (lpm),Bypass flow (lpm),Sample temperature (°C),Ambient temperature (°C),ASC tube jacket temperature (°C),LED temperature (°C),Box temperature (°C),Sample RH (%),Span deviation,Mass concentration (μg/m³),Mass concentration (μg/m³),Mass concentration (μg/m³)
DateTimeUTC,F1_M11,P_M11,Q1_M11,Q2_M11,T1_M11,T2_M11,T3_M11,T4_M11,T5_M11,U1_M11,ZSPAN_M11,X0_M11,X2_M11,X1_M11
2022-09-07 19:00:00,,0832.9,5.00,0.00,29.4,27.4,00.0,38.1,31.2,20.3,0001.7,0035.14,0016.02,0014.17
2022-09-07 19:01:00,,0832.8,5.01,0.00,29.5,27.7,00.0,38.1,31.3,20.3,0001.3,0034.47,0016.07,0014.23
2022-09-07 19:02:00,,0832.9,5.00,0.00,29.5,28.0,00.0,38.1,31.4,20.6,0001.1,0033.80,0016.12,0014.29
2022-09-07 19:03:00,,0832.9,4.99,0.00,29.5,28.2,00.0,38.1,31.4,20.5,0001.5,0034.06,0016.14,0014.32
2022-09-07 19:04:00,,0832.8,5.00,0.00,29.6,27.8,00.0,38.2,31.4,20.6,0001.6,0034.15,0016.15,0014.32
2022-09-07 19:05:00,,0832.9,5.00,0.00,29.5,26.7,00.0,38.1,31.3,20.3,0001.6,0032.43,0016.19,0014.34
2022-09-07 19:06:00,,0832.8,4.99,0.00,29.5,26.6,00.0,38.1,31.3,19.7,0002.1,0031.98,0016.22,0014.34
2022-09-07 19:07:00,,0832.8,5.00,0.00,29.4,26.9,00.0,38.1,31.2,19.7,0002.3,0032.57,0016.22,0014.32
2022-09-07 19:08:00,,0832.8,4.99,0.00,29.4,27.2,00.0,38.1,31.1,20.0,0002.0,0033.81,0016.24,0014.30
2022-09-07 19:09:00,,0832.8,5.00,0.00,29.4,27.5,00.0,38.1,31.2,20.8,0001.9,0033.82,0016.15,0014.28
2022-09-07 19:10:00,,0832.7,5.00,0.00,29.4,27.8,00.0,38.1,31.3,21.6,0001.8,0034.70,0016.18,0014.27
2022-09-07 19:11:00,,0832.8,5.01,0.00,29.5,28.1,00.0,38.1,31.3,21.5,0001.8,0035.85,0016.19,0014.29
2022-09-07 19:12:00,,0832.7,4.98,0.00,29.5,28.1,00.0,38.1,31.4,21.4,0002.2,0036.24,0016.23,0014.30
2022-09-07 19:13:00,,0832.8,5.01,0.00,29.5,27.2,00.0,38.1,31.3,21.7,0002.4,0037.06,0016.20,0014.31
2022-09-07 19:14:00,,0832.8,4.99,0.00,29.5,26.5,00.0,38.1,31.2,21.5,0002.3,0035.61,0016.12,0014.32
2022-09-07 19:15:00,,0832.7,5.00,0.00,29.4,26.7,00.0,38.1,31.2,21.6,0002.3,0034.28,0016.16,0014.34
2022-09-07 19:16:00,,0832.7,5.02,0.00,29.4,27.0,00.0,38.1,31.1,22.4,0002.5,0033.65,0016.17,0014.40
2022-09-07 19:17:00,,0832.7,5.00,0.00,29.4,27.3,00.0,38.0,31.1,22.0,0002.7,0035.12,0016.14,0014.42
2022-09-07 19:18:00,,0832.7,5.00,0.00,29.4,27.6,00.0,38.0,31.2,21.9,0002.4,0035.13,0016.16,0014.46
2022-09-07 19:19:00,,0832.7,5.01,0.00,29.4,27.9,00.0,38.0,31.3,21.9,0002.4,0034.12,0016.20,0014.51
2022-09-07 19:20:00,,0832.7,4.99,0.00,29.5,28.2,00.0,38.1,31.4,21.7,0002.2,0033.85,0016.30,0014.58
2022-09-07 19:21:00,,0832.7,5.00,0.00,29.5,28.3,00.0,38.1,31.5,21.6,0002.4,0033.65,0016.41,0014.61
2022-09-07 19:22:00,,0832.6,4.99,0.00,29.5,27.4,00.0,38.1,31.4,21.8,0002.4,0033.19,0016.44,0014.60
2022-09-07 19:23:00,,0832.6,5.00,0.00,29.5,26.6,00.0,38.1,31.3,21.8,0002.2,0032.22,0016.40,0014.60
2022-09-07 19:24:00,,0832.6,5.01,0.00,29.5,26.8,00.0,38.1,31.3,21.6,0002.0,0032.01,0016.51,0014.61
2022-09-07 19:25:00,,0832.6,4.99,0.00,29.4,27.1,00.0,38.1,31.2,21.1,0001.8,0033.04,0016.63,0014.61
2022-09-07 19:26:00,,0832.6,5.00,0.00,29.4,27.4,00.0,38.1,31.1,21.2,0001.6,0033.73,0016.57,0014.58
2022-09-07 19:27:00,,0832.6,5.00,0.00,29.4,27.7,00.0,38.1,31.2,21.4,0001.5,0034.34,0016.55,0014.54
2022-09-07 19:28:00,,0832.6,5.00,0.00,29.5,27.9,00.0,38.1,31.3,21.3,0001.2,0032.87,0016.58,0014.52
2022-09-07 19:29:00,,0832.5,5.01,0.00,29.5,28.2,00.0,38.1,31.4,21.2,0001.2,0031.80,0016.53,0014.50
2022-09-07 19:30:00,,0832.5,4.98,0.00,29.5,27.9,00.0,38.1,31.4,20.8,0001.1,0031.47,0016.47,0014.46
2022-09-07 19:31:00,,0832.5,5.01,0.00,29.5,26.9,00.0,38.1,31.3,20.8,0001.3,0033.54,0016.42,0014.40
2022-09-07 19:32:00,,0832.5,5.00,0.00,29.5,26.6,00.0,38.1,31.3,20.3,0001.5,0033.31,0016.24,0014.34
2022-09-07 19:33:00,,0832.5,5.00,0.00,29.5,27.0,00.0,38.1,31.3,20.0,0001.4,0031.82,0016.21,0014.30
2022-09-07 19:34:00,,0832.5,4.99,0.00,29.4,27.2,00.0,38.0,31.2,20.2,0001.5,0032.43,0016.21,0014.23
2022-09-07 19:35:00,,0832.5,5.00,0.00,29.4,27.5,00.0,38.0,31.2,20.5,0001.9,0032.44,0016.06,0014.14
2022-09-07 19:36:00,,0832.4,5.00,0.00,29.4,27.8,00.0,38.0,31.3,19.7,0001.9,0031.20,0015.90,0014.06
2022-09-07 19:37:00,,0832.5,5.00,0.00,29.5,28.1,00.0,38.0,31.3,18.7,0001.7,0031.25,0015.77,0013.96
2022-09-07 19:38:00,,0832.5,4.99,0.00,29.5,28.3,00.0,38.1,31.4,17.8,0001.9,0033.08,0015.63,0013.85
2022-09-07 19:39:00,,0832.4,5.00,0.00,29.6,28.0,00.0,38.1,31.5,18.4,0001.9,0033.60,0015.49,0013.72
2022-09-07 19:40:00,,0832.4,4.99,0.00,29.5,26.9,00.0,38.1,31.4,18.3,0002.0,0033.65,0015.32,0013.59
2022-09-07 19:41:00,,0832.4,5.00,0.00,29.5,26.6,00.0,38.1,31.3,19.6,0002.2,0033.64,0015.27,0013.50
2022-09-07 19:42:00,,0832.4,5.00,0.00,29.5,26.9,00.0,38.1,31.3,20.2,0002.3,0031.93,0015.22,0013.44
2022-09-07 19:43:00,,0832.3,4.99,0.00,29.4,27.2,00.0,38.0,31.1,20.0,0002.0,0033.23,0015.20,0013.39
2022-09-07 19:44:00,,0832.3,5.00,0.00,29.4,27.5,00.0,38.0,31.2,20.3,0002.1,0034.20,0015.18,0013.34
2022-09-07 19:45:00,,0832.3,5.01,0.00,29.5,27.8,00.0,38.1,31.3,20.4,0002.2,0035.02,0015.14,0013.32
2022-09-07 19:46:00,,0832.3,5.01,0.00,29.5,28.0,00.0,38.1,31.4,20.1,0001.9,0035.23,0015.13,0013.29
2022-09-07 19:47:00,,0832.3,4.98,0.00,29.5,28.3,00.0,38.1,31.4,20.5,0002.7,0036.17,0015.17,0013.29
2022-09-07 19:48:00,,0832.3,5.01,0.00,29.6,28.1,00.0,38.1,31.5,20.5,0003.1,0036.08,0015.25,0013.31
2022-09-07 19:49:00,,0832.3,5.00,0.00,29.6,27.1,00.0,38.1,31.4,19.1,0002.9,0034.11,0015.29,0013.31
2022-09-07 19:50:00,,0832.3,5.01,0.00,29.5,26.7,00.0,38.1,31.3,17.8,0002.8,0033.13,0015.31,0013.23
2022-09-07 19:51:00,,0832.3,5.00,0.00,29.5,27.0,00.0,38.1,31.3,17.9,0003.1,0034.03,0015.34,0013.16
2022-09-07 19:52:00,,0832.3,5.00,0.00,29.5,27.2,00.0,38.1,31.2,18.9,0002.7,0034.54,0015.30,0013.06
2022-09-07 19:53:00,,0832.3,5.00,0.00,29.5,27.5,00.0,38.1,31.2,20.7,0002.6,0033.99,0015.20,0013.00
2022-09-07 19:54:00,,0832.3,5.01,0.00,29.5,27.8,00.0,38.1,31.3,20.9,0002.6,0033.39,0015.21,0012.97
2022-09-07 19:55:00,,0832.3,5.01,0.00,29.5,28.1,00.0,38.1,31.3,20.5,0003.2,0034.36,0015.13,0012.90
2022-09-07 19:56:00,,0832.3,4.99,0.00,29.6,28.3,00.0,38.1,31.5,20.4,0003.9,0035.40,0015.07,0012.87
2022-09-07 19:57:00,,0832.2,5.00,0.00,29.6,27.5,00.0,38.1,31.5,20.5,0003.5,0034.44,0015.07,0012.85
2022-09-07 19:58:00,,0832.2,5.00,0.00,29.5,26.7,00.0,38.1,31.4,21.3,0002.8,0033.92,0015.13,0012.85
2022-09-07 19:59:00,,0832.2,5.01,0.00,29.5,26.8,00.0,38.1,31.4,21.2,0002.1,0035.34,0015.18,0012.85
